User: anonymous   Login
Location: Unspecified
(0.0000°N, 0.0000°E)
Time: 03:41:44
(UTC+00:00)
Language:

JAS-1B - Orbit

View from above orbital plane
View from above orbital plane
View from above satellite
View from above satellite

Ground track
Ground track

The orbit data is extracted from the following two-line orbital elements,

1 20480U 90013C   21342.58202853 -.00000062  00000-0 -58603-4 0  9998
2 20480  99.0221 190.0818 0539470 286.7505  67.5085 12.83431915491469
Epoch (UTC): 08 December 2021 13:58:07
Eccentricity: 0.0539470
inclination: 99.0221°
perigee height: 912 km
apogee height: 1743 km
right ascension of ascending node: 190.0818°
argument of perigee: 286.7505°
revolutions per day: 12.83431915
mean anomaly at epoch: 67.5085°
orbit number at epoch: 49146

The dashed part of the orbit path shows where the satellite is in the earth's shadow,  

DLR